Tracking 30995 objects as of 5-Jul-2025
HD Live streaming from Space Station
objects crossing your sky now

STARLINK-4202

Track STARLINK-4202 now!
10-day predictions
STARLINK-4202 is classified as:


NORAD ID: 52848
Int'l Code: 2022-062U
Perigee: 545.9 km
Apogee: 547.8 km
Inclination: 53.2 °
Period: 95.4 minutes
Semi major axis: 6917 km
RCS: Unknown
Launch date: June 17, 2022
Source: United States (US)
Launch site: AIR FORCE EASTERN TEST RANGE (AFETR)
Your satellite tracking list
STARLINK-31688
Track 1 satellite(s)




NASA's NSSDC Master Catalog

Two Line Element Set (TLE):
1 52848U 22062U   25186.06008176  .00003471  00000-0  23601-3 0  9999
2 52848  53.2175  65.7738 0001410  85.2717 274.8436 15.08846090168408
Source of the keplerian elements: AFSPC